www.pogodaiklimat.ru

Погода и климат >> Архив погоды >> Мали >> Кеньеб


ПОГОДА в Кеньебе

  • Прогноз погоды в Кеньебе
  • Монитор погоды в Кеньебе

АРХИВ ПОГОДЫ в Кеньебе

Время (UTC), дата Ветер
(напр.,м/с)
 
Видим.   Явления Облачность Т
(С)
Тd
(С)
f
(%)
Тe
(С)
Тes
(С)
Комфортность P
(гПа)
Po
(гПа)
Тmin
(С)
Tmax
(С)
R
(мм)
R24
(мм)
S
(см)
15 18.06 ЮВ 2 10 км 6/3 900 м
[Sc Ci sp]
+39.4 +23.4 40 +49 +59 опасность
перегрева
1009.5 995.0
18 18.06 СЗ 2 10 км 8/4 900 м
[Cu hum Ac und Ci sp]
+40.5 +22.9 37 +50 +50 опасность
перегрева
1008.5 993.9 +41.5
21 18.06 штиль 0 10 км 8/3 900 м
[Sc Ac As]
+35.5 +23.7 51 +47 +47 опасность
перегрева
1010.0 995.4
00 19.06 В 2 10 км 5/0
[Ci sp]
+34.8 +22.2 48 +44 +44 опасность
перегрева
1011.2 996.7
03 19.06 штиль 0 10 км 4/0
[Ci sp]
+32.5 +22.6 56 +42 +42 опасность
перегрева
1011.1 996.6
06 19.06 С 2 10 км 6/0
[Ci sp]
+30.3 +23.3 66 +41 +41 опасность
перегрева
1011.8 997.2 +30.3
09 19.06 С 2 10 км 4/0
[Ci sp]
+31.7 +24.4 65 +44 +51 опасность
перегрева
1013.8 999.3
12 19.06 С 2 10 км 5/1 900 м
[Sc Ci sp]
+36.5 +23.2 46 +46 +63 опасность
перегрева
1012.4 998.0
15 19.06 штиль 0 10 км 5/3 900 м
[Sc Ci sp]
+39.8 +22.0 36 +47 +61 опасность
перегрева
1010.1 995.7
18 19.06 штиль 0 10 км 6/4 900 м
[Cu Sc Ci sp]
+40.4 +21.0 33 +47 +48 опасность
перегрева
1008.2 993.8 +41.2
21 19.06 ЮВ 10 10 км гроза без осадков 10/6 900 м
[Cb cap Ac As]
+33.5 +23.4 56 +44 +44 опасность
перегрева
1011.9 997.4
00 20.06 штиль 0 10 км гроза без осадков 10/6 900 м
[Cb cap Ac As]
+27.3 +22.6 76 +36 +36 очень
душно
1012.4 997.8 1
03 20.06 штиль 0 10 км {гроза} 10/4 900 м
[Sc Ac As]
+27.0 +23.4 81 +37 +37 очень
душно
1011.7 997.2
06 20.06 штиль 0 10 км {гроза} 8/0
[Ci sp]
+26.1 +23.8 87 +36 +36 очень
душно
1010.9 996.4 +25.0 11
09 20.06 ЮЗ 1 10 км 8/0
[Ci sp]
+30.0 +22.8 65 +40 +47 очень
душно
1012.5 997.7
12 20.06 Ю 1 10 км 8/3 900 м
[Sc Ci sp]
+34.2 +24.1 56 +46 +61 опасность
перегрева
1013.4 998.5
15 20.06 З 3 10 км 8/0
[Ac trans Ci sp]
+38.0 +23.7 44 +49 +57 опасность
перегрева
1010.1 995.4
18 20.06 Ю 2 10 км 8/0
[Ac As Ci sp]
+37.0 +25.0 50 +50 +51 опасность
перегрева
1010.0 994.2 +39.0
21 20.06 ЮВ 1 10 км 8/0
[Ac As Ci sp]
+34.5 +24.3 55 +47 +47 опасность
перегрева
1009.7 995.0
00 21.06 Ю 2 10 км 8/0
[Ci sp]
+33.3 +23.7 57 +44 +44 опасность
перегрева
1010.0 995.3
03 21.06 штиль 0 10 км 8/0
[Ci sp]
+31.0 +24.5 68 +43 +43 опасность
перегрева
1009.9 995.3
06 21.06 штиль 0 10 км 10/1 900 м
[Sc Ac As Ci sp]
+30.0 +23.6 69 +41 +41 опасность
перегрева
1011.9 997.2 +30.0
09 21.06 штиль 0 10 км 9/0
[Ci sp]
+32.2 +24.8 65 +45 +54 опасность
перегрева
1013.1 998.4
12 21.06 штиль 0 10 км 9/1 900 м
[Cu hum Ci sp]
+36.5 +25.5 53 +51 +71 опасность
перегрева
1011.6 997.5
15 21.06 штиль 0 10 км 6/4 900 м
[Sc Ci sp]
+38.0 +24.1 45 +49 +61 опасность
перегрева
1009.3 994.8
18 21.06 штиль 0 10 км 6/3 900 м
[Sc Ci sp]
+39.0 +25.1 45 +52 +53 опасность
перегрева
1008.8 994.3 +39.8
21 21.06 штиль 0 10 км гроза без осадков 8/5 900 м
[Cb cap Ci sp]
+35.6 +25.1 55 +49 +49 опасность
перегрева
1010.6 996.0
00 22.06 ЮЗ 3 10 км гроза без осадков 10/5 900 м
[Cb cap Ac As]
+27.5 +23.9 81 +38 +38 очень
душно
1012.1 997.4 2
03 22.06 СЗ 1 10 км {гроза} 9/3 900 м
[Sc diur, vesp Ci sp]
+27.0 +22.6 77 +36 +36 очень
душно
1011.5 996.8
06 22.06 штиль 0 10 км {гроза} 9/4 900 м
[Sc Ci sp]
+25.9 +23.4 86 +35 +35 очень
душно
1012.0 997.3 +25.9 2
09 22.06 штиль 0 10 км 8/0
[Ci sp]
+30.0 +23.3 67 +40 +49 очень
душно
1013.3 998.7
12 22.06 ЮЗ 2 10 км 5/0
[Ci sp]
+34.9 +23.6 52 +46 +64 опасность
перегрева
1012.7 998.1
15 22.06 штиль 0 10 км 5/1 1000 м
[Cu med, cong Ci sp]
+38.7 +23.8 43 +50 +67 опасность
перегрева
1010.0 995.5
18 22.06 С 2 10 км 6/3 900 м
[Cb calv Ci sp]
+39.0 +21.9 38 +47 +48 опасность
перегрева
1008.0 993.5 +40.0
21 22.06 штиль 0 10 км гроза, ливневой дождь 10/9 900 м
[Cb cap Ac As]
+25.0 +23.6 92 +34 +34 очень
душно
1012.9 998.1
00 23.06 ЮЗ 2 5000 м гроза, ливневой дождь 10/6 900 м
[Cb cap Ac As]
+24.5 +22.7 90 +32 +32 очень
душно
1015.6 1000.9 36
03 23.06 штиль 0 10 км {гроза, дождь} 10/4 300 м
[Frnb Ac As]
+24.4 +24.4 100 +34 +34 очень
душно
1012.5 997.9
06 23.06 штиль 0 10 км {гроза, дождь} 10/4 900 м
[Sc Ac As]
+24.3 +23.6 96 +33 +33 очень
душно
1013.1 998.5 +23.5 40
09 23.06 штиль 0 10 км 8/3 900 м
[Sc Ci sp]
+26.5 +22.9 81 +35 +42 очень
душно
1013.5 998.4
12 23.06 штиль 0 10 км 8/1 900 м
[Sc Ac trans Ci sp]
+31.7 +24.1 64 +44 +59 опасность
перегрева
1012.6 997.6
15 23.06 СЗ 1 10 км 8/0
[Ac As Ci sp]
+34.2 +23.8 55 +46 +56 опасность
перегрева
1010.4 995.5
18 23.06 штиль 0 10 км 9/0
[Ac As]
+35.0 +23.7 52 +46 +47 опасность
перегрева
1009.7 994.8 +36.1
21 23.06 штиль 0 10 км 8/3 900 м
[Sc Ac As Ci sp]
+31.3 +25.0 69 +45 +45 опасность
перегрева
1011.0 996.1
00 24.06 Ю 1 10 км 8/3 900 м
[Sc Ac As Ci sp]
+30.0 +24.0 70 +41 +41 опасность
перегрева
1011.5 996.7
03 24.06 штиль 0 10 км 8/4 900 м
[Sc Ac As Ci sp]
+28.3 +24.3 79 +40 +40 очень
душно
1010.6 995.8
06 24.06 штиль 0 10 км 9/0
[Ci sp]
+27.2 +23.8 82 +37 +37 очень
душно
1011.2 996.4 +27.2
09 24.06 штиль 0 10 км 8/3 900 м
[Cu hum Ci sp]
+29.3 +24.6 76 +42 +48 опасность
перегрева
1011.8 997.0
12 24.06 С 2 10 км 8/0
[Ci sp]
+33.4 +22.8 54 +43 +61 опасность
перегрева
1010.8 996.1
15 24.06 С 2 10 км 8/0
[Ci sp]
+37.0 +23.5 46 +47 +60 опасность
перегрева
1008.5 993.9
18 24.06 штиль 0 10 км 6/0
[Ci sp]
+38.0 +24.2 46 +50 +52 опасность
перегрева
1007.3 992.7 +38.6
21 24.06 ЮЗ 2 10 км 6/0
[Ci sp]
+33.1 +24.2 60 +45 +45 опасность
перегрева
1009.0 994.3
00 25.06 Ю 2 10 км 5/0
[Ci sp]
+31.8 +22.9 59 +42 +42 опасность
перегрева
1009.3 994.7
03 25.06 штиль 0 10 км 6/0
[Ac As]
+29.6 +23.9 71 +41 +41 опасность
перегрева
1008.5 993.9
06 25.06 штиль 0 10 км 9/4 900 м
[Sc Ac As]
+28.3 +23.6 76 +39 +39 очень
душно
1009.9 995.3 +28.3
09 25.06 СЗ 2 10 км 8/0
[Ci sp]
+30.1 +23.5 68 +41 +47 опасность
перегрева
1011.3 996.7

 

Местоположение метеостанции Кеньеб (Мали): широта 12.85 долгота -11.23 высота над уровнем моря 132 м.

В архиве по умолчанию представлена погода в Кеньебе за последнюю неделю. Архивные данные за месяц целиком и за предыдущие месяцы, начиная с января 2011 года, Вы можете получить, выбрав интересующий диапазон дат из раскрывающегося списка и нажав кнопку "Ввод!".


*Определитесь, кто Вы:
робот инопланетянин человек

Внимание! Время в таблицах - всемирное. Для получения местного времени необходимо прибавить поправку, которая равна 0 ч.

Смотрите также архив погоды в соседних городах и на ближайших метеорологических станциях:

Погода в Кедугу (Сенегал) (111 км)
Погода в Каесе (Мали) (177 км)
Погода в Ките (Мали) (192 км)
Погода в Кундаре (Гвинея) (249 км)
Погода в Фатото (Гамбия) (261 км)
Погода в Йелимане (Мали) (263 км)
Погода в Тамбакунде (Сенегал) (284 км)
Погода в Бассе (Гамбия) (327 км)
Погода в Ниоро-Дю-Сахель (Мали) (333 км)
Погода в Бамако (Мали) (358 км)

Пояснения к столбцам:

Ветер - указаны скорость ветра в м/с - средняя за 10 мин, порывы в срок и между сроками (в фигурных скобках) и направление, откуда дует ветер: С - северный, СВ - северо-восточный, В - восточный, ЮВ - юго-восточный, Ю - южный, ЮЗ - юго-западный, З - западный, СЗ - северо-западный.
Видимость - горизонтальная дальность видимости в метрах или километрах. При видимости от 1 до 10 км при отсутствии осадков обычно наблюдается дымка, при ухудшении видимости до 1 км и менее - туман. В сухую погоду видимость может ухудшаться дымом, пылью или мглою.
Явления - указаны атмосферные явления, наблюдавшиеся в срок или в последний час перед сроком; фигурными скобками обозначены явления, наблюдавшиеся между сроками (за 1-3 часа до срока); квадратными скобками обозначены град или гололедные отложения с указанием их диаметра в мм.
Облачность - указаны через наклонную черту общая и нижняя облачность в баллах и высота нижней границы облаков в метрах; квадратными скобками обозначены формы облаков: Ci - перистые, Cs - перисто-слоистые, Cc - перисто-кучевые, Ac - высококучевые, As - высокослоистые, Sc - слоисто-кучевые, Ns - слоисто-дождевые, Cu - кучевые, Cb - кучево-дождевые. Подробнее классификацию облаков см. в Атласе облаков (PDF).
T - Температура воздуха - температура, измеренная на высоте 2 м над землей.
Td - Температура точки росы - температура, при понижении до которой содержащийся в воздухе водяной пар достигнет насыщения.
f - Относительная влажность воздуха - влажноcть воздуха, измеренная на высоте 2 м над землей.
Te - Эффективная температура - температура, которую ощущает одетый по сезону человек в тени. Характеристика душности погоды. При расчете учитывается влияние влажности воздуха и скорости ветра на теплоощущения человека.
Tes - Эффективная температура на солнце - температура, которую ощущает человек, с поправкой на солнечный нагрев. Характеристика знойности погоды. Зависит от высоты солнца над горизонтом, облачности и скорости ветра. Ночью, в пасмурную погоду, а также при ветре 12 м/с и более поправка равна нулю.
P - Атмосферное давление - приведенное к уровню моря атмосферное давление.
Po - Атмосферное давление - измеренное на уровне метеостанции атмосферное давление.
Tmin - Минимальная температура - минимум температуры воздуха на высоте 2 м над землей.
Tmax - Максимальная температура - максимум температуры воздуха на высоте 2 м над землей.
R - Количество осадков - Количество выпавших осадков за период времени, мм. При наведении курсора мыши на число - период времени, за который выпало указанное количество осадков.
R24 - Количество осадков - Количество выпавших осадков за 24 часа, мм.
S - Снежный покров - Высота снежного покрова, см. При наведении курсора мыши на число - состояние снежного покрова и степень покрытия местности в баллах.